GW5434 Weather Reports


time (UTC)temp
C
wind
direction
speed
KPH
gust
KPH
rain 1hr
cm
rain 24hr
cm
rain mn
cm
humidity
%
barometer
mb
20260903100027 22 114 0.0 0.0 0.00 0.00 0.00 93 1015.9
20260903094511 22 114 0.0 0.0 0.00 0.00 0.00 93 1015.9
20260903093018 22 113 0.0 0.0 0.00 0.00 0.00 92 1015.9
20260903091523 23 113 0.0 0.0 0.00 0.00 0.00 92 1015.9
20260903090027 23 114 0.0 0.0 0.00 0.00 0.00 93 1015.9
20260903084526 23 114 0.0 0.0 0.00 0.00 0.00 92 1016.1
20260903083018 23 114 0.0 0.0 0.00 0.00 0.00 92 1016.1
20260903081529 23 113 0.0 0.0 0.00 0.00 0.00 92 1016.1
20260903080023 23 113 0.0 0.0 0.00 0.00 0.00 92 1016.0
20260903074530 23 113 0.0 0.0 0.00 0.00 0.00 92 1016.0
20260903073027 23 113 0.0 0.0 0.00 0.00 0.00 91 1016.0
20260903071516 23 113 0.0 0.0 0.00 0.00 0.00 91 1016.1
20260903070020 23 113 0.0 0.0 0.00 0.00 0.00 90 1016.2
20260903064527 23 113 0.0 0.0 0.00 0.00 0.00 91 1016.3
20260903063051 23 114 0.0 0.0 0.00 0.00 0.00 90 1016.4
20260903061530 24 114 0.0 0.0 0.00 0.00 0.00 89 1016.5
20260903060020 24 114 0.0 0.0 0.00 0.00 0.00 89 1016.7
20260903054520 25 114 0.0 0.0 0.00 0.00 0.00 88 1016.8
20260903053026 25 115 0.0 0.0 0.00 0.00 0.00 88 1016.9
20260903051532 24 171 0.0 0.0 0.00 0.00 0.00 89 1016.9
20260903050038 25 171 0.0 0.0 0.00 0.00 0.00 88 1017.0
20260903044519 25 166 0.0 0.0 0.00 0.00 0.00 87 1017.0
20260903043003 25 166 0.0 0.0 0.00 0.00 0.00 87 1016.9
20260903041510 25 166 0.0 0.0 0.00 0.00 0.00 86 1016.8
20260903040009 26 166 0.0 0.0 0.00 0.00 0.00 85 1016.9
20260903034526 26 166 0.0 0.0 0.00 0.00 0.00 84 1016.8
20260903033024 26 166 0.0 0.0 0.00 0.00 0.00 82 1016.8
20260903031504 27 166 0.0 0.0 0.00 0.00 0.00 81 1016.9
20260903030009 27 200 0.0 0.0 0.00 0.00 0.00 79 1016.7
20260903024513 28 217 0.0 1.6 0.00 0.00 0.00 78 1016.8
20260903023020 28 131 0.0 3.2 0.00 0.00 0.00 76 1016.7
20260903021528 28 229 1.6 6.4 0.00 0.00 0.00 76 1016.7
20260903020006 28 217 1.6 6.4 0.00 0.00 0.00 75 1016.5
20260903014510 29 207 1.6 8.0 0.00 0.00 0.00 75 1016.5
20260903013014 30 133 3.2 9.7 0.00 0.00 0.00 74 1016.2
20260903011520 30 240 1.6 8.0 0.00 0.00 0.00 73 1016.0
20260903010031 30 191 3.2 6.4 0.00 0.00 0.00 72 1015.8
20260903004508 31 194 0.0 4.8 0.00 0.00 0.00 69 1015.4
20260903003011 31 210 3.2 4.8 0.00 0.00 0.00 67 1015.2
20260903001517 32 90 0.0 12.9 0.00 0.00 0.00 65 1015.2
20260903000023 32 68 0.0 0.0 0.00 0.00 0.00 64 1015.0
20260902234536 34 91 0.0 1.6 0.00 0.00 0.00 60 1014.9
20260902233009 35 97 0.0 4.8 0.00 0.00 0.00 55 1014.9
20260902231525 36 110 0.0 6.4 0.00 0.00 0.00 54 1014.9
20260902230027 36 90 3.2 4.8 0.00 0.00 0.00 49 1014.6
20260902224524 37 143 1.6 4.8 0.00 0.00 0.00 49 1014.7
20260902223030 36 179 0.0 6.4 0.00 0.00 0.00 51 1014.9
20260902221517 36 63 4.8 8.0 0.00 0.00 0.00 48 1014.9
20260902220015 36 123 1.6 8.0 0.00 0.00 0.00 49 1015.1
20260902214520 36 111 4.8 9.7 0.00 0.00 0.00 51 1015.2
20260902213026 36 124 6.4 11.3 0.00 0.00 0.00 49 1015.3
20260902211539 36 89 3.2 8.0 0.00 0.00 0.00 50 1015.5
20260902210011 36 82 1.6 3.2 0.00 0.00 0.00 48 1015.4
20260902204518 36 184 3.2 12.9 0.00 0.00 0.00 47 1015.7
20260902203019 37 228 3.2 11.3 0.00 0.00 0.00 46 1015.8
20260902201534 37 113 1.6 6.4 0.00 0.00 0.00 47 1015.8
20260902200035 36 185 3.2 11.3 0.00 0.00 0.00 49 1016.0
20260902194514 36 94 1.6 14.5 0.00 0.00 0.00 49 1016.2
20260902193017 36 101 1.6 17.7 0.00 0.00 0.00 49 1016.5
20260902191532 36 203 8.0 14.5 0.00 0.00 0.00 50 1016.8
20260902190004 35 144 6.4 12.9 0.00 0.00 0.00 50 1017.1
20260902184508 36 179 3.2 9.7 0.00 0.00 0.00 51 1017.4
20260902183018 36 225 3.2 8.0 0.00 0.00 0.00 53 1017.5
20260902181518 35 75 6.4 14.5 0.00 0.00 0.00 52 1017.7
20260902180024 35 189 3.2 12.9 0.00 0.00 0.00 52 1017.7
20260902174506 35 128 4.8 11.3 0.00 0.00 0.00 56 1017.9
20260902173009 35 27 1.6 12.9 0.00 0.00 0.00 54 1018.0
20260902171515 35 79 4.8 9.7 0.00 0.00 0.00 55 1018.3
20260902170021 35 188 4.8 12.9 0.00 0.00 0.00 58 1018.6
20260902164504 34 173 3.2 9.7 0.00 0.00 0.00 57 1018.8
20260902163004 34 333 1.6 9.7 0.00 0.00 0.00 58 1019.1
20260902161517 33 224 1.6 6.4 0.00 0.00 0.00 59 1019.1
20260902160017 32 338 0.0 6.4 0.00 0.00 0.00 62 1019.3
20260902154528 32 184 1.6 8.0 0.00 0.00 0.00 63 1019.2
20260902153004 32 249 3.2 6.4 0.00 0.00 0.00 67 1019.2
20260902151506 31 20 3.2 4.8 0.00 0.00 0.00 71 1019.3
20260902150014 31 204 0.0 6.4 0.00 0.00 0.00 71 1019.2
20260902144529 30 343 1.6 4.8 0.00 0.00 0.00 75 1019.2
20260902143025 29 293 1.6 4.8 0.00 0.00 0.00 79 1019.2
20260902141510 30 335 0.0 0.0 0.00 0.00 0.00 78 1019.2
20260902140016 28 316 0.0 0.0 0.00 0.00 0.00 81 1019.3
20260902134530 27 325 0.0 0.0 0.00 0.00 0.00 83 1019.2
20260902133023 27 132 0.0 0.0 0.00 0.00 0.00 84 1019.3
20260902131525 26 151 0.0 0.0 0.00 0.00 0.00 87 1019.4
20260902130007 24 117 0.0 0.0 0.00 0.00 0.00 94 1019.2
20260902124511 22 117 0.0 0.0 0.00 0.00 0.00 95 1019.2
20260902123017 22 117 0.0 0.0 0.00 0.00 0.00 94 1018.9
20260902121520 22 117 0.0 0.0 0.00 0.00 0.00 94 1018.7
20260902120027 21 117 0.0 0.0 0.00 0.00 0.00 94 1018.7
20260902114508 21 117 0.0 0.0 0.00 0.00 0.00 94 1018.6
20260902113029 21 117 0.0 0.0 0.00 0.00 0.00 94 1018.5
20260902111521 21 117 0.0 0.0 0.00 0.00 0.00 94 1018.2
20260902110022 21 117 0.0 0.0 0.00 0.00 0.00 94 1018.1
20260902104530 21 117 0.0 0.0 0.00 0.00 0.00 93 1018.1
20260902103020 22 117 0.0 0.0 0.00 0.00 0.00 93 1017.9
20260902101516 22 117 0.0 0.0 0.00 0.00 0.00 93 1017.8